Weather in Srinagar

India     34˚05′06″N   74˚48′43″E
temp.,
°C
wind,
m/s
gust,
m/s
humid.,
%
clouds,
%
prec.,
mm/h
press.,
hPa
HPBL,
m
2 december, wed
wed223:30+7˚wnw12500 0.0 102522
02:30+6˚wnw125518 0.0 102422
05:30+4˚w11589 0.0 102422
08:30+6˚nw11550 0.0 102542
11:30+11˚nnw22360 0.0 1023495
14:30+14˚nnw22290 0.0 1020554
17:30+10˚wsw11390 0.0 102022
20:30+8˚ssw11440 0.0 102222
3 december, thu
thu323:30+6˚wnw22450 0.0 102222
02:30+4˚wnw11500 0.0 102122
05:30+2˚w11530 0.0 102122
08:30+4˚wsw01490 0.0 102350
11:30+10˚n22270 0.0 1021481
14:30+13˚n11210 0.0 1019533
17:30+8˚w01290 0.0 102022
20:30+6˚wsw11360 0.0 102222
4 december, fri
fri423:30+5˚wnw12390 0.0 102222
02:30+3˚wsw11410 0.0 102122
05:30+2˚wnw014332 0.0 102022
08:30+4˚wnw014055 0.0 102134
11:30+9˚n112665 0.0 1019414
14:30+12˚n212393 0.0 1017512
17:30+8˚nw113095 0.0 101722
20:30+8˚sw113499 0.0 101922
5 december, sat
sat523:30+7˚wnw333999 0.0 101956
02:30+5˚wnw115987 0.1 101822
05:30+3˚w117078 0.1 101922
08:30+5˚wnw127278 0.0 1021144
11:30+9˚nw215663 0.0 1019681
14:30+11˚nw324841 0.0 1017917
17:30+8˚nw236256 0.1 101744
20:30+6˚wsw116589 0.0 102022
6 december, sun
sun623:30+5˚w116774 0.0 102122
02:30+3˚w117382 0.0 102222
05:30+3˚w017591 0.0 102122
08:30+4˚w116854 0.0 102441
11:30+9˚n225027 0.0 1022535
14:30+12˚nnw213668 0.0 1020813
17:30+8˚wnw124684 0.0 102122
20:30+7˚w1152100 0.0 102422